Year,Month,Day,Hour,Minute,Value (Times are PST for temperature in C)
2018,02,07,12,56,9.30
2018,02,07,12,57,9.30
2018,02,07,12,58,9.40
2018,02,07,12,59,9.40
2018,02,07,13,00,9.40
2018,02,07,13,01,9.50
2018,02,07,13,02,9.50
2018,02,07,13,03,9.40
2018,02,07,13,04,9.40
2018,02,07,13,05,9.30
2018,02,07,13,06,9.20
2018,02,07,13,07,9.10
2018,02,07,13,08,9.10
2018,02,07,13,09,9.00
2018,02,07,13,10,8.90
2018,02,07,13,11,8.80
2018,02,07,13,12,8.80
2018,02,07,13,13,8.70
2018,02,07,13,14,8.70
2018,02,07,13,15,8.70
2018,02,07,13,16,8.70
2018,02,07,13,17,8.70
2018,02,07,13,18,8.70
2018,02,07,13,19,8.70
2018,02,07,13,20,8.70
2018,02,07,13,21,8.60
2018,02,07,13,22,8.70
2018,02,07,13,23,8.70
2018,02,07,13,24,8.70
2018,02,07,13,25,8.70
2018,02,07,13,26,8.70
2018,02,07,13,27,8.70
2018,02,07,13,28,8.70
2018,02,07,13,29,8.70
2018,02,07,13,30,8.70
2018,02,07,13,31,8.70
2018,02,07,13,32,8.80
2018,02,07,13,33,8.80
2018,02,07,13,34,8.80
2018,02,07,13,35,8.80
2018,02,07,13,36,8.90
2018,02,07,13,37,9.00
2018,02,07,13,38,9.00
2018,02,07,13,39,9.10
2018,02,07,13,40,9.20
2018,02,07,13,41,9.20
2018,02,07,13,42,9.30
2018,02,07,13,43,9.40
2018,02,07,13,44,9.40
2018,02,07,13,45,9.50
2018,02,07,13,46,9.50
2018,02,07,13,47,9.60
2018,02,07,13,48,9.70
2018,02,07,13,49,9.70
2018,02,07,13,50,9.80
2018,02,07,13,51,9.80
2018,02,07,13,52,9.90
2018,02,07,13,53,9.90
2018,02,07,13,54,10.00
2018,02,07,13,55,10.00
2018,02,07,13,56,10.00
2018,02,07,13,57,10.10
2018,02,07,13,58,10.20
2018,02,07,13,59,10.20
2018,02,07,14,00,10.30
2018,02,07,14,01,10.30
2018,02,07,14,02,10.40
2018,02,07,14,03,10.50
2018,02,07,14,04,10.50
2018,02,07,14,05,10.50
2018,02,07,14,06,10.50
2018,02,07,14,07,10.40
2018,02,07,14,08,10.30
2018,02,07,14,09,10.20
2018,02,07,14,10,10.20
2018,02,07,14,11,10.20
2018,02,07,14,12,10.30
2018,02,07,14,13,10.40
2018,02,07,14,14,10.50
2018,02,07,14,15,10.60
2018,02,07,14,16,10.70
2018,02,07,14,17,10.80
2018,02,07,14,18,10.90
2018,02,07,14,19,11.00
2018,02,07,14,20,11.10
2018,02,07,14,21,11.10
2018,02,07,14,22,11.10
2018,02,07,14,23,11.20
2018,02,07,14,24,11.20
2018,02,07,14,25,11.30
2018,02,07,14,26,11.30
2018,02,07,14,27,11.30
2018,02,07,14,28,11.40
2018,02,07,14,29,11.40
2018,02,07,14,30,11.50
2018,02,07,14,31,11.50
2018,02,07,14,32,11.60
2018,02,07,14,33,11.60
2018,02,07,14,34,11.70
2018,02,07,14,35,11.70
2018,02,07,14,36,11.70
2018,02,07,14,37,11.70
2018,02,07,14,38,11.70
2018,02,07,14,39,11.80
2018,02,07,14,40,11.80
2018,02,07,14,41,11.80
2018,02,07,14,42,11.80
2018,02,07,14,43,11.80
2018,02,07,14,44,11.80
2018,02,07,14,45,11.80
2018,02,07,14,46,11.80
2018,02,07,14,47,11.80
2018,02,07,14,48,11.90
2018,02,07,14,49,11.90
2018,02,07,14,50,11.90
2018,02,07,14,51,11.80
2018,02,07,14,52,11.80
2018,02,07,14,53,11.90
2018,02,07,14,54,11.80
2018,02,07,14,55,11.80
2018,02,07,14,56,11.80
2018,02,07,14,57,11.80
2018,02,07,14,58,11.80
2018,02,07,14,59,11.80
2018,02,07,15,00,11.80
2018,02,07,15,01,11.80
2018,02,07,15,02,11.70
2018,02,07,15,03,11.70
2018,02,07,15,04,11.70
2018,02,07,15,05,11.70
2018,02,07,15,06,11.70
2018,02,07,15,07,11.70
2018,02,07,15,08,11.70
2018,02,07,15,09,11.70
2018,02,07,15,10,11.70
2018,02,07,15,11,11.70
2018,02,07,15,12,11.70
2018,02,07,15,13,11.60
2018,02,07,15,14,11.60
2018,02,07,15,15,11.60
2018,02,07,15,16,11.60
2018,02,07,15,17,11.60
2018,02,07,15,18,11.60
2018,02,07,15,19,11.50
2018,02,07,15,20,11.50
2018,02,07,15,21,11.50
2018,02,07,15,22,11.50
2018,02,07,15,23,11.50
2018,02,07,15,24,11.50
2018,02,07,15,25,11.50
2018,02,07,15,26,11.40
2018,02,07,15,27,11.40
2018,02,07,15,28,11.40
2018,02,07,15,29,11.40
2018,02,07,15,30,11.40
2018,02,07,15,31,11.40
2018,02,07,15,32,11.40
2018,02,07,15,33,11.40
2018,02,07,15,34,11.40
2018,02,07,15,35,11.50
2018,02,07,15,36,11.50
2018,02,07,15,37,11.50
2018,02,07,15,38,11.50
2018,02,07,15,39,11.50
2018,02,07,15,40,11.50
2018,02,07,15,41,11.50
2018,02,07,15,42,11.60
2018,02,07,15,43,11.50
2018,02,07,15,44,11.50
2018,02,07,15,45,11.50
2018,02,07,15,46,11.50
2018,02,07,15,47,11.50
2018,02,07,15,48,11.50
2018,02,07,15,49,11.50
2018,02,07,15,50,11.50
2018,02,07,15,51,11.50
2018,02,07,15,52,11.50
2018,02,07,15,53,11.40
2018,02,07,15,54,11.40
2018,02,07,15,55,11.40
2018,02,07,15,56,11.40
2018,02,07,15,57,11.40
2018,02,07,15,58,11.40
2018,02,07,15,59,11.40
2018,02,07,16,00,11.30
2018,02,07,16,01,11.30
2018,02,07,16,02,11.30
2018,02,07,16,03,11.40
2018,02,07,16,04,11.40
2018,02,07,16,05,11.30
2018,02,07,16,06,11.30
2018,02,07,16,07,11.40
2018,02,07,16,08,11.40
2018,02,07,16,09,11.40
2018,02,07,16,10,11.40
2018,02,07,16,11,11.40
2018,02,07,16,12,11.40
2018,02,07,16,13,11.40
2018,02,07,16,14,11.40
2018,02,07,16,15,11.40
2018,02,07,16,16,11.50
2018,02,07,16,17,11.50
2018,02,07,16,18,11.50
2018,02,07,16,19,11.50
2018,02,07,16,20,11.50
2018,02,07,16,21,11.50
2018,02,07,16,22,11.50
2018,02,07,16,23,11.50
2018,02,07,16,24,11.50
2018,02,07,16,25,11.50
2018,02,07,16,26,11.50
2018,02,07,16,27,11.40
2018,02,07,16,28,11.40
2018,02,07,16,29,11.40
2018,02,07,16,30,11.40
2018,02,07,16,31,11.40
2018,02,07,16,32,11.40
2018,02,07,16,33,11.40
2018,02,07,16,34,11.40
2018,02,07,16,35,11.40
2018,02,07,16,36,11.40
2018,02,07,16,37,11.40
2018,02,07,16,38,11.40
2018,02,07,16,39,11.40
2018,02,07,16,40,11.30
2018,02,07,16,41,11.30
2018,02,07,16,42,11.30
2018,02,07,16,43,11.30
2018,02,07,16,44,11.20
2018,02,07,16,45,11.20
2018,02,07,16,46,11.10
2018,02,07,16,47,11.10
2018,02,07,16,48,11.00
2018,02,07,16,49,11.00
2018,02,07,16,50,10.90
2018,02,07,16,51,10.90
2018,02,07,16,52,10.90
2018,02,07,16,53,10.80
2018,02,07,16,54,10.80
2018,02,07,16,55,10.80
2018,02,07,16,56,10.80
2018,02,07,16,57,10.80
2018,02,07,16,58,10.80
2018,02,07,16,59,10.70
2018,02,07,17,00,10.70
2018,02,07,17,01,10.70
2018,02,07,17,02,10.70
2018,02,07,17,03,10.60
2018,02,07,17,04,10.50
2018,02,07,17,05,10.40
2018,02,07,17,06,10.30
2018,02,07,17,07,10.20
2018,02,07,17,08,10.10
2018,02,07,17,09,10.10
2018,02,07,17,10,10.10
2018,02,07,17,11,10.10
2018,02,07,17,12,10.10
2018,02,07,17,13,10.10
2018,02,07,17,14,10.10
2018,02,07,17,15,10.10
2018,02,07,17,16,10.10
2018,02,07,17,17,10.10
2018,02,07,17,18,10.10
